C/2005 R4 ( LINEAR )

Japanese version
Home page
Total 6,336 html files since Dec. 4, 1995
Updated on February 12, 2007

---------------------------------------------------------------------

* Profile

Discovery Date September 13, 2005
Magnitude 18.7 mag
Discoverer Lincoln Laboratory Near-Earth Asteroid Research project

* Pictures

* Orbital Elements

The following orbital elements are taken from MPC 57793:

Epoch 2006 Mar. 6.0 TT = JDT 2453800.5
T 2006 Mar. 8.0074 TT                                   MPC
q   5.188435             (2000.0)            P               Q
z  +0.000485       Peri.    6.8861      +0.5421509      +0.8031383
 +/-0.000003       Node    63.7718      +0.7572118      -0.5944273
e   0.997484       Incl.  164.0128      +0.3642837      +0.0403125
From 386 observations 2005 Sept. 13-2006 Oct. 1, mean residual 0".6.

* Finding Charts

* Magnitudes Graph

        m1 = -0.5 + 5 log d + 20 log r

---------------------------------------------------------------------

The orbital elements are published at the MPC Ephemerides and Orbital Elements.
The charts are made with StellaNavigator Ver.2.0 for Windows (AstroArts / ASCII).
The magnitudes graphs are made with Comet for Windows.

---------------------------------------------------------------------

Copyright(C) 1995-2008 Seiichi Yoshida (comet@aerith.net). All rights reserved.